{"data":{"norad_id":67293,"epoch":"2026-09-20T22:24:48.386304Z","epoch_age_seconds":65490,"freshness":"FRESH","line1":"1 67293U 25313AX  26263.93389336  .00002213  00000+0  95802-4 0  9999","line2":"2 67293  97.3860 337.1990 0011224  20.3213 339.8468 15.23410230 40539","mean_motion":15.2341023,"eccentricity":0.0011224,"inclination_deg":97.386,"raan_deg":337.199,"arg_perigee_deg":20.3213,"mean_anomaly_deg":339.8468,"bstar":9.5802e-5,"rev_number":4053,"period_min":94.524768945526,"perigee_km":487.84831690049,"apogee_km":503.27839946454,"semimajor_km":6873.7003581825,"source":"CELESTRAK","updated_at":"2026-09-21T09:00:16.550836Z"}}